{"data":{"norad_id":68618,"intl_designator":"2026-073S","name":"STARLINK-37179","alt_names":[],"object_type":"PAYLOAD","status":"ACTIVE","operator":null,"country":"US","launch_date":"2026-04-07","launch_site_code":"AFWTR","launch_vehicle":null,"mission":null,"orbit_class":"UNKNOWN","rcs_meters":null,"size_class":null,"mass_kg":null,"dimensions":null,"purposes":["comms"],"wikipedia_slug":null,"has_3d_model":false,"image_url":null,"decayed_at":null,"tle_current":{"epoch":"2026-05-25T04:00:03.998880Z","epoch_age_seconds":71087,"freshness":"FRESH","line1":"1 68618U 26073S   26145.16671295 -.00026269  00000+0 -48262-3 0  9993","line2":"2 68618  97.2849 344.6052 0001926  90.7382  97.5829 15.49207431  5990","mean_motion":15.49207431,"eccentricity":0.0001926,"inclination_deg":97.2849,"raan_deg":344.6052,"arg_perigee_deg":90.7382,"mean_anomaly_deg":97.5829,"bstar":-0.00048262,"rev_number":599,"period_min":92.950754765648,"perigee_km":417.73421987424,"apogee_km":420.35249374769,"semimajor_km":6797.180356811,"source":"CELESTRAK","updated_at":"2026-05-25T13:38:21.988734Z"}}}